GW3504 Weather Reports


time (UTC)temp
C
wind
direction
speed
KPH
gust
KPH
rain 1hr
cm
rain 24hr
cm
rain mn
cm
humidity
%
barometer
mb
20260902210046 37 140 1.6 20.9 0.00 0.00 0.00 38 1013.0
20260902205525 37 247 6.4 20.9 0.00 0.00 0.00 38 1013.1
20260902205026 37 314 3.2 20.9 0.00 0.00 0.00 36 1013.1
20260902204549 36 0 3.2 14.5 0.00 0.00 0.00 38 1013.3
20260902204025 37 17 3.2 12.9 0.00 0.00 0.00 36 1013.4
20260902203526 37 173 3.2 11.3 0.00 0.00 0.00 36 1013.3
20260902203048 37 292 1.6 24.1 0.00 0.00 0.00 37 1013.4
20260902202523 36 168 3.2 24.1 0.00 0.00 0.00 39 1013.5
20260902202025 37 187 6.4 16.1 0.00 0.00 0.00 37 1013.6
20260902201554 37 103 4.8 14.5 0.00 0.00 0.00 38 1013.5
20260902201025 36 182 8.0 14.5 0.00 0.00 0.00 39 1013.7
20260902200525 36 142 4.8 17.7 0.00 0.00 0.00 40 1013.7
20260902200048 36 103 1.6 17.7 0.00 0.00 0.00 39 1013.9
20260902195524 37 252 3.2 17.7 0.00 0.00 0.00 38 1013.9
20260902195022 37 0 3.2 14.5 0.00 0.00 0.00 39 1013.9
20260902194546 37 159 3.2 14.5 0.00 0.00 0.00 38 1014.0
20260902194026 37 190 4.8 14.5 0.00 0.00 0.00 37 1014.1
20260902193525 37 0 3.2 16.1 0.00 0.00 0.00 37 1014.2
20260902193054 37 242 1.6 16.1 0.00 0.00 0.00 36 1014.2
20260902192525 37 275 3.2 17.7 0.00 0.00 0.00 39 1014.2
20260902192025 37 108 3.2 17.7 0.00 0.00 0.00 37 1014.2
20260902191542 37 271 4.8 24.1 0.00 0.00 0.00 39 1014.3
20260902191025 36 196 11.3 24.1 0.00 0.00 0.00 40 1014.4
20260902190525 37 119 3.2 25.7 0.00 0.00 0.00 39 1014.4
20260902190043 36 173 8.0 25.7 0.00 0.00 0.00 40 1014.6
20260902185525 37 213 4.8 17.7 0.00 0.00 0.00 38 1014.6
20260902185024 37 0 3.2 17.7 0.00 0.00 0.00 40 1014.6
20260902184606 36 146 4.8 17.7 0.00 0.00 0.00 40 1014.6
20260902184027 36 342 4.8 22.5 0.00 0.00 0.00 40 1014.8
20260902183524 37 189 4.8 22.5 0.00 0.00 0.00 39 1014.9
20260902183056 37 163 6.4 22.5 0.00 0.00 0.00 40 1014.9
20260902182526 36 178 3.2 19.3 0.00 0.00 0.00 42 1015.0
20260902182026 36 163 6.4 19.3 0.00 0.00 0.00 41 1015.1
20260902181545 36 153 4.8 17.7 0.00 0.00 0.00 41 1015.1
20260902181026 36 211 3.2 17.7 0.00 0.00 0.00 42 1015.1
20260902180525 36 302 3.2 17.7 0.00 0.00 0.00 43 1015.2
20260902180044 35 202 4.8 17.7 0.00 0.00 0.00 43 1015.3
20260902175524 36 144 3.2 20.9 0.00 0.00 0.00 43 1015.3
20260902175025 36 281 8.0 20.9 0.00 0.00 0.00 44 1015.3
20260902174541 35 288 4.8 17.7 0.00 0.00 0.00 44 1015.4
20260902174025 36 210 3.2 24.1 0.00 0.00 0.00 43 1015.4
20260902173523 35 245 4.8 24.1 0.00 0.00 0.00 46 1015.5
20260902173047 35 150 6.4 24.1 0.00 0.00 0.00 46 1015.5
20260902172528 35 213 8.0 24.1 0.00 0.00 0.00 46 1015.5
20260902172028 35 165 3.2 16.1 0.00 0.00 0.00 46 1015.6
20260902171553 35 163 4.8 16.1 0.00 0.00 0.00 46 1015.8
20260902171026 35 198 4.8 19.3 0.00 0.00 0.00 46 1015.7
20260902170526 35 198 4.8 20.9 0.00 0.00 0.00 47 1015.8
20260902170041 34 171 1.6 27.4 0.00 0.00 0.00 49 1015.9
20260902165525 34 144 8.0 27.4 0.00 0.00 0.00 48 1016.0
20260902165025 34 157 6.4 17.7 0.00 0.00 0.00 48 1015.9
20260902164543 34 150 1.6 19.3 0.00 0.00 0.00 49 1015.9
20260902164023 33 142 6.4 19.3 0.00 0.00 0.00 50 1016.0
20260902163523 33 175 4.8 17.7 0.00 0.00 0.00 50 1016.0
20260902163056 33 164 3.2 16.1 0.00 0.00 0.00 50 1016.1
20260902162524 33 279 4.8 16.1 0.00 0.00 0.00 51 1016.0
20260902162024 33 111 4.8 14.5 0.00 0.00 0.00 51 1016.1
20260902161545 33 317 3.2 16.1 0.00 0.00 0.00 52 1016.0
20260902161023 33 153 3.2 16.1 0.00 0.00 0.00 52 1016.1
20260902160525 32 197 3.2 16.1 0.00 0.00 0.00 53 1016.1
20260902160046 32 149 6.4 16.1 0.00 0.00 0.00 54 1016.1
20260902155525 32 187 6.4 19.3 0.00 0.00 0.00 54 1016.1
20260902155023 32 329 6.4 22.5 0.00 0.00 0.00 56 1016.1
20260902154545 31 160 6.4 22.5 0.00 0.00 0.00 55 1016.1
20260902154024 31 0 1.6 19.3 0.00 0.00 0.00 56 1016.1
20260902153525 31 0 3.2 17.7 0.00 0.00 0.00 58 1016.2
20260902153051 31 180 6.4 19.3 0.00 0.00 0.00 58 1016.2
20260902152526 31 155 1.6 20.9 0.00 0.00 0.00 59 1016.1
20260902152025 30 150 6.4 20.9 0.00 0.00 0.00 59 1016.1
20260902151542 30 148 6.4 19.3 0.00 0.00 0.00 60 1016.1
20260902151024 30 250 4.8 19.3 0.00 0.00 0.00 60 1016.1
20260902150526 30 165 4.8 19.3 0.00 0.00 0.00 61 1016.1
20260902150047 29 0 3.2 19.3 0.00 0.00 0.00 62 1016.1
20260902145524 29 154 6.4 17.7 0.00 0.00 0.00 62 1016.1
20260902145026 28 194 4.8 24.1 0.00 0.00 0.00 63 1016.1
20260902144545 28 167 3.2 24.1 0.00 0.00 0.00 63 1016.0
20260902144024 28 162 1.6 17.7 0.00 0.00 0.00 64 1016.1
20260902143525 28 165 4.8 22.5 0.00 0.00 0.00 64 1016.1
20260902143044 28 165 4.8 22.5 0.00 0.00 0.00 63 1016.2
20260902142524 28 0 1.6 20.9 0.00 0.00 0.00 63 1016.3
20260902142024 28 166 4.8 14.5 0.00 0.00 0.00 63 1016.3
20260902141539 28 195 3.2 14.5 0.00 0.00 0.00 63 1016.3
20260902141027 27 138 1.6 17.7 0.00 0.00 0.00 64 1016.3
20260902140523 27 247 3.2 19.3 0.00 0.00 0.00 65 1016.2
20260902140044 27 175 3.2 19.3 0.00 0.00 0.00 66 1016.3
20260902135524 27 188 4.8 17.7 0.00 0.00 0.00 66 1016.3
20260902135025 26 155 4.8 16.1 0.00 0.00 0.00 67 1016.2
20260902134552 26 180 1.6 14.5 0.00 0.00 0.00 68 1016.2
20260902134025 26 182 3.2 14.5 0.00 0.00 0.00 68 1016.3
20260902133524 26 150 3.2 11.3 0.00 0.00 0.00 69 1016.3
20260902133047 25 166 1.6 11.3 0.00 0.00 0.00 69 1016.3
20260902132525 25 168 3.2 11.3 0.00 0.00 0.00 70 1016.3
20260902132027 25 152 4.8 9.7 0.00 0.00 0.00 69 1016.2
20260902131545 25 190 3.2 12.9 0.00 0.00 0.00 70 1016.2
20260902131025 25 169 3.2 12.9 0.00 0.00 0.00 70 1016.1
20260902130526 25 147 1.6 12.9 0.00 0.00 0.00 70 1016.1
20260902130043 25 159 4.8 12.9 0.00 0.00 0.00 71 1016.1
20260902125529 24 169 1.6 8.0 0.00 0.00 0.00 72 1016.0
20260902125025 24 163 1.6 11.3 0.00 0.00 0.00 72 1015.9
20260902124548 24 132 1.6 11.3 0.00 0.00 0.00 73 1015.9
20260902124022 24 0 1.6 8.0 0.00 0.00 0.00 73 1015.8
20260902123524 23 178 0.0 9.7 0.00 0.00 0.00 73 1015.8
20260902123053 23 184 3.2 9.7 0.00 0.00 0.00 73 1015.8
20260902122527 23 184 1.6 9.7 0.00 0.00 0.00 73 1015.7
20260902122026 23 0 1.6 12.9 0.00 0.00 0.00 73 1015.7
20260902121544 23 0 0.0 12.9 0.00 0.00 0.00 73 1015.7
20260902121025 23 157 0.0 6.4 0.00 0.00 0.00 73 1015.7
20260902120526 23 180 0.0 6.4 0.00 0.00 0.00 73 1015.5
20260902120053 23 0 1.6 8.0 0.00 0.00 0.00 72 1015.6
20260902115524 23 0 1.6 8.0 0.00 0.00 0.00 72 1015.6
20260902115024 23 160 3.2 8.0 0.00 0.00 0.00 71 1015.5
20260902114546 24 0 0.0 8.0 0.00 0.00 0.00 71 1015.5
20260902114023 24 0 1.6 8.0 0.00 0.00 0.00 71 1015.4
20260902113524 24 148 1.6 9.7 0.00 0.00 0.00 70 1015.4
20260902113044 24 161 3.2 11.3 0.00 0.00 0.00 70 1015.5
20260902112527 24 169 4.8 11.3 0.00 0.00 0.00 70 1015.4
20260902112024 24 0 3.2 8.0 0.00 0.00 0.00 70 1015.4
20260902111540 24 185 1.6 8.0 0.00 0.00 0.00 70 1015.4
20260902111026 24 161 0.0 9.7 0.00 0.00 0.00 69 1015.4
20260902110527 24 160 1.6 9.7 0.00 0.00 0.00 69 1015.3
20260902110047 24 0 3.2 9.7 0.00 0.00 0.00 69 1015.3
20260902105525 24 169 1.6 8.0 0.00 0.00 0.00 69 1015.3
20260902105023 25 0 3.2 14.5 0.00 0.00 0.00 69 1015.3
20260902104542 25 0 3.2 14.5 0.00 0.00 0.00 68 1015.3
20260902104025 25 0 3.2 9.7 0.00 0.00 0.00 67 1015.2
20260902103525 25 175 1.6 9.7 0.00 0.00 0.00 67 1015.3
20260902103040 25 160 1.6 6.4 0.00 0.00 0.00 67 1015.2
20260902102530 25 0 0.0 4.8 0.00 0.00 0.00 66 1015.2
20260902102027 25 0 1.6 8.0 0.00 0.00 0.00 66 1015.1
20260902101547 25 0 0.0 11.3 0.00 0.00 0.00 65 1015.3
20260902101026 25 0 1.6 12.9 0.00 0.00 0.00 65 1015.1
20260902100526 25 168 3.2 12.9 0.00 0.00 0.00 65 1015.1
20260902100047 25 171 3.2 12.9 0.00 0.00 0.00 65 1015.0
20260902095526 25 179 1.6 11.3 0.00 0.00 0.00 66 1015.1
20260902095023 25 180 0.0 11.3 0.00 0.00 0.00 66 1015.1
20260902094545 25 165 1.6 6.4 0.00 0.00 0.00 66 1015.0
20260902094024 25 0 0.0 3.2 0.00 0.00 0.00 65 1014.9
20260902093524 25 0 0.0 6.4 0.00 0.00 0.00 65 1015.0
20260902093057 25 0 1.6 8.0 0.00 0.00 0.00 64 1014.9
20260902092524 26 166 1.6 12.9 0.00 0.00 0.00 63 1015.0
20260902092027 26 165 1.6 12.9 0.00 0.00 0.00 62 1014.9
20260902091546 26 148 1.6 8.0 0.00 0.00 0.00 62 1015.0
20260902091023 26 148 1.6 6.4 0.00 0.00 0.00 62 1014.8
20260902090531 26 245 0.0 8.0 0.00 0.00 0.00 60 1014.5
20260902090045 26 246 0.0 8.0 0.00 0.00 0.00 60 1014.5
20260902085525 27 156 0.0 11.3 0.00 0.00 0.00 59 1014.6
20260902085025 27 170 0.0 11.3 0.00 0.00 0.00 59 1014.5
20260902084546 27 0 1.6 11.3 0.00 0.00 0.00 58 1014.4
20260902084024 27 0 3.2 14.5 0.00 0.00 0.00 58 1014.5
20260902083526 27 0 4.8 14.5 0.00 0.00 0.00 58 1014.5
20260902083041 27 161 4.8 14.5 0.00 0.00 0.00 58 1014.3
20260902082524 27 165 1.6 9.7 0.00 0.00 0.00 58 1014.2
20260902082023 27 149 1.6 9.7 0.00 0.00 0.00 58 1014.2
20260902081547 27 0 0.0 8.0 0.00 0.00 0.00 57 1014.3
20260902081023 27 179 0.0 9.7 0.00 0.00 0.00 57 1014.2
20260902080523 27 0 3.2 9.7 0.00 0.00 0.00 57 1014.2
20260902080046 27 0 1.6 6.4 0.00 0.00 0.00 57 1014.2
20260902075525 27 274 0.0 6.4 0.00 0.00 0.00 56 1014.3
20260902075025 27 0 0.0 16.1 0.00 0.00 0.00 56 1014.2
20260902074554 28 188 0.0 16.1 0.00 0.00 0.00 56 1014.2
20260902074024 28 171 1.6 12.9 0.00 0.00 0.00 55 1014.1
20260902073524 28 272 3.2 12.9 0.00 0.00 0.00 55 1014.2
20260902073040 28 208 1.6 17.7 0.00 0.00 0.00 55 1014.2
20260902072523 28 163 3.2 17.7 0.00 0.00 0.00 55 1014.2
20260902072024 28 0 4.8 12.9 0.00 0.00 0.00 55 1014.3
20260902071543 28 210 1.6 22.5 0.00 0.00 0.00 55 1014.2
20260902071024 28 186 3.2 22.5 0.00 0.00 0.00 55 1014.3
20260902070525 28 181 4.8 19.3 0.00 0.00 0.00 55 1014.4
20260902070047 27 0 3.2 14.5 0.00 0.00 0.00 56 1014.3
20260902065525 27 205 1.6 14.5 0.00 0.00 0.00 58 1014.3
20260902065026 27 211 1.6 16.1 0.00 0.00 0.00 59 1014.3
20260902064545 26 0 1.6 16.1 0.00 0.00 0.00 60 1014.4
20260902064023 26 186 1.6 9.7 0.00 0.00 0.00 61 1014.5
20260902063524 26 0 0.0 3.2 0.00 0.00 0.00 61 1014.5
20260902063046 26 0 0.0 3.2 0.00 0.00 0.00 60 1014.5
20260902062525 26 0 0.0 4.8 0.00 0.00 0.00 60 1014.4
20260902062023 26 0 0.0 4.8 0.00 0.00 0.00 59 1014.5
20260902061558 26 0 0.0 1.6 0.00 0.00 0.00 59 1014.4
20260902061025 27 0 0.0 1.6 0.00 0.00 0.00 59 1014.3
20260902060523 27 0 0.0 3.2 0.00 0.00 0.00 59 1014.4
20260902060055 27 0 0.0 3.2 0.00 0.00 0.00 58 1014.5
20260902055524 27 0 0.0 6.4 0.00 0.00 0.00 58 1014.4
20260902055025 27 0 0.0 6.4 0.00 0.00 0.00 58 1014.5
20260902054608 27 0 0.0 6.4 0.00 0.00 0.00 57 1014.5
20260902054024 27 0 0.0 6.4 0.00 0.00 0.00 57 1014.6
20260902053524 27 180 0.0 4.8 0.00 0.00 0.00 56 1014.4
20260902053100 28 0 0.0 3.2 0.00 0.00 0.00 55 1014.5
20260902052521 28 0 0.0 4.8 0.00 0.00 0.00 55 1014.5
20260902052024 28 0 0.0 6.4 0.00 0.00 0.00 54 1014.4
20260902051542 28 225 0.0 8.0 0.00 0.00 0.00 54 1014.4
20260902051028 28 168 0.0 8.0 0.00 0.00 0.00 54 1014.5
20260902050524 28 0 1.6 11.3 0.00 0.00 0.00 54 1014.5
20260902050042 28 173 1.6 11.3 0.00 0.00 0.00 54 1014.5
20260902045523 28 186 3.2 11.3 0.00 0.00 0.00 53 1014.5
20260902045024 28 217 1.6 9.7 0.00 0.00 0.00 53 1014.5
20260902044552 28 0 0.0 11.3 0.00 0.00 0.00 53 1014.5
20260902044024 28 211 1.6 12.9 0.00 0.00 0.00 53 1014.5
20260902043525 28 162 3.2 12.9 0.00 0.00 0.00 53 1014.5
20260902043046 28 165 3.2 16.1 0.00 0.00 0.00 53 1014.4
20260902042525 28 208 3.2 16.1 0.00 0.00 0.00 53 1014.4
20260902042024 28 0 3.2 9.7 0.00 0.00 0.00 53 1014.5
20260902041541 28 165 1.6 11.3 0.00 0.00 0.00 53 1014.5
20260902041025 28 0 1.6 11.3 0.00 0.00 0.00 53 1014.5
20260902040524 28 176 0.0 11.3 0.00 0.00 0.00 53 1014.5
20260902040048 28 173 0.0 8.0 0.00 0.00 0.00 53 1014.6
20260902035523 28 0 3.2 9.7 0.00 0.00 0.00 53 1014.7
20260902035025 29 171 1.6 12.9 0.00 0.00 0.00 52 1014.7
20260902034548 29 153 4.8 12.9 0.00 0.00 0.00 52 1014.6
20260902034025 29 156 4.8 12.9 0.00 0.00 0.00 51 1014.6
20260902033523 29 181 3.2 14.5 0.00 0.00 0.00 51 1014.6
20260902033047 29 170 4.8 16.1 0.00 0.00 0.00 51 1014.6
20260902032524 29 169 3.2 16.1 0.00 0.00 0.00 51 1014.6
20260902032023 29 162 3.2 14.5 0.00 0.00 0.00 51 1014.5
20260902031547 29 173 4.8 12.9 0.00 0.00 0.00 52 1014.4
20260902031025 29 157 1.6 9.7 0.00 0.00 0.00 52 1014.5
20260902030525 29 0 0.0 9.7 0.00 0.00 0.00 52 1014.4
20260902030042 29 160 1.6 6.4 0.00 0.00 0.00 52 1014.3
20260902025525 29 182 1.6 6.4 0.00 0.00 0.00 52 1014.1
20260902025023 29 166 0.0 8.0 0.00 0.00 0.00 52 1014.1
20260902024548 30 0 1.6 8.0 0.00 0.00 0.00 52 1014.0
20260902024023 30 166 0.0 8.0 0.00 0.00 0.00 52 1014.0
20260902023523 30 156 1.6 8.0 0.00 0.00 0.00 51 1014.1
20260902023055 30 132 0.0 6.4 0.00 0.00 0.00 51 1014.1
20260902022525 30 178 0.0 4.8 0.00 0.00 0.00 51 1014.1
20260902022025 30 0 0.0 4.8 0.00 0.00 0.00 51 1014.0
20260902021545 30 172 0.0 4.8 0.00 0.00 0.00 50 1014.1
20260902021024 30 153 0.0 4.8 0.00 0.00 0.00 50 1014.0
20260902020524 30 0 0.0 8.0 0.00 0.00 0.00 49 1014.0
20260902020042 30 0 0.0 8.0 0.00 0.00 0.00 49 1014.0
20260902015526 30 0 0.0 8.0 0.00 0.00 0.00 49 1013.9
20260902015024 31 0 0.0 6.4 0.00 0.00 0.00 48 1013.9
20260902014540 31 169 0.0 6.4 0.00 0.00 0.00 48 1013.8
20260902014027 31 169 0.0 6.4 0.00 0.00 0.00 48 1013.7
20260902013524 31 172 0.0 6.4 0.00 0.00 0.00 48 1013.7
20260902013053 31 0 0.0 6.4 0.00 0.00 0.00 47 1013.7
20260902012524 31 0 0.0 3.2 0.00 0.00 0.00 47 1013.6
20260902012024 31 0 0.0 4.8 0.00 0.00 0.00 47 1013.6
20260902011547 31 0 0.0 4.8 0.00 0.00 0.00 46 1013.7
20260902011024 32 0 0.0 4.8 0.00 0.00 0.00 46 1013.7
20260902010525 32 165 0.0 4.8 0.00 0.00 0.00 45 1013.6
20260902010045 32 0 0.0 4.8 0.00 0.00 0.00 45 1013.6
20260902005525 32 168 0.0 1.6 0.00 0.00 0.00 45 1013.6
20260902005024 32 0 0.0 3.2 0.00 0.00 0.00 45 1013.5
20260902004546 32 0 0.0 4.8 0.00 0.00 0.00 44 1013.7
20260902004024 33 168 0.0 6.4 0.00 0.00 0.00 44 1013.6
20260902003524 33 0 0.0 6.4 0.00 0.00 0.00 43 1013.6
20260902003043 33 0 0.0 8.0 0.00 0.00 0.00 43 1013.7
20260902002522 33 0 0.0 8.0 0.00 0.00 0.00 42 1013.6
20260902002025 34 187 0.0 8.0 0.00 0.00 0.00 41 1013.8
20260902001602 34 0 1.6 6.4 0.00 0.00 0.00 40 1013.7
20260902001023 34 176 0.0 8.0 0.00 0.00 0.00 40 1013.8
20260902000523 35 148 1.6 8.0 0.00 0.00 0.00 40 1013.7
20260902000045 35 0 1.6 8.0 0.00 0.00 0.00 39 1013.7
20260901235525 35 165 1.6 12.9 0.00 0.00 0.00 38 1013.8
20260901235027 35 158 0.0 12.9 0.00 0.00 0.00 38 1013.8
20260901234541 35 158 1.6 12.9 0.00 0.00 0.00 38 1013.8
20260901234025 35 174 3.2 12.9 0.00 0.00 0.00 37 1013.9
20260901233525 35 178 3.2 8.0 0.00 0.00 0.00 37 1013.8
20260901233055 35 0 1.6 9.7 0.00 0.00 0.00 37 1013.8
20260901232527 35 155 1.6 11.3 0.00 0.00 0.00 36 1013.8
20260901232027 36 183 6.4 11.3 0.00 0.00 0.00 35 1013.9
20260901231548 36 148 3.2 12.9 0.00 0.00 0.00 35 1013.8
20260901231026 36 178 3.2 12.9 0.00 0.00 0.00 35 1013.9
20260901230526 36 169 3.2 12.9 0.00 0.00 0.00 34 1013.9
20260901230046 36 187 1.6 11.3 0.00 0.00 0.00 34 1013.8
20260901225524 36 143 3.2 11.3 0.00 0.00 0.00 34 1013.9
20260901225024 36 173 4.8 14.5 0.00 0.00 0.00 33 1013.9
20260901224549 36 156 3.2 19.3 0.00 0.00 0.00 33 1013.9
20260901224028 36 206 3.2 24.1 0.00 0.00 0.00 33 1013.9
20260901223527 36 277 8.0 24.1 0.00 0.00 0.00 33 1013.9
20260901223051 36 88 4.8 11.3 0.00 0.00 0.00 33 1013.8
20260901222525 36 163 3.2 22.5 0.00 0.00 0.00 34 1013.9
20260901222023 36 125 1.6 22.5 0.00 0.00 0.00 34 1013.9
20260901221558 37 167 3.2 16.1 0.00 0.00 0.00 34 1013.8
20260901221024 36 0 4.8 17.7 0.00 0.00 0.00 34 1013.8
20260901220528 36 250 3.2 20.9 0.00 0.00 0.00 34 1013.9
20260901220052 36 180 6.4 20.9 0.00 0.00 0.00 34 1013.8
20260901215527 37 169 4.8 25.7 0.00 0.00 0.00 33 1013.8
20260901215026 36 157 3.2 25.7 0.00 0.00 0.00 34 1013.9
20260901214551 36 155 4.8 24.1 0.00 0.00 0.00 34 1013.9
20260901214025 36 159 4.8 19.3 0.00 0.00 0.00 34 1013.9
20260901213525 36 158 3.2 29.0 0.00 0.00 0.00 34 1013.8
20260901213048 37 314 3.2 29.0 0.00 0.00 0.00 33 1014.0
20260901212526 37 175 8.0 29.0 0.00 0.00 0.00 32 1014.0
20260901212025 37 242 4.8 19.3 0.00 0.00 0.00 33 1014.0
20260901211547 37 226 6.4 17.7 0.00 0.00 0.00 32 1014.0
20260901211026 37 173 8.0 17.7 0.00 0.00 0.00 32 1014.1
20260901210527 37 196 4.8 16.1 0.00 0.00 0.00 31 1014.1